• In Österreich
  • Länderverzeichnis
  • Für 7 Tage
  • Wassertemperatur
  • Satellitenkarten
  • Wetterkarte
  • News
  • Widgets
  • user-avatar
    Anmelden

    Stündliche Wetter Chechuzhyne

    Heute, 16 Oktober, Dienstag

    Zeit Temperatur Niederschläge Wind Luftdruck Luftfeuchtigkeit
    00:00 +15°C° 0 mm 2 m/S 763 mmHg 68%
    01:00 +15°C° 0 mm 2 m/S 763 mmHg 70%
    02:00 +15°C° 0 mm 2 m/S 763 mmHg 73%
    03:00 +15°C° 0 mm 2 m/S 763 mmHg 74%
    04:00 +14°C° 0 mm 2 m/S 763 mmHg 76%
    05:00 +14°C° 0 mm 2 m/S 763 mmHg 77%
    06:00 +15°C° 0 mm 2 m/S 763 mmHg 74%
    07:00 +16°C° 0 mm 2 m/S 763 mmHg 71%
    08:00 +17°C° 0 mm 2 m/S 763 mmHg 67%
    09:00 +19°C° 0 mm 2 m/S 763 mmHg 61%
    10:00 +20°C° 0 mm 2 m/S 763 mmHg 54%
    11:00 +23°C° 0 mm 2 m/S 763 mmHg 48%
    12:00 +24°C° 0 mm 2 m/S 763 mmHg 45%
    13:00 +25°C° 0 mm 2 m/S 762 mmHg 42%
    14:00 +26°C° 0 mm 2 m/S 762 mmHg 40%
    15:00 +24°C° 0 mm 2 m/S 762 mmHg 44%
    16:00 +23°C° 0 mm 2 m/S 762 mmHg 48%
    17:00 +21°C° 0 mm 2 m/S 762 mmHg 52%
    18:00 +20°C° 0 mm 2 m/S 762 mmHg 54%
    19:00 +19°C° 0 mm 2 m/S 762 mmHg 56%
    20:00 +18°C° 0 mm 2 m/S 762 mmHg 58%
    21:00 +18°C° 0 mm 2 m/S 762 mmHg 60%
    22:00 +17°C° 0 mm 2 m/S 762 mmHg 61%
    23:00 +17°C° 0 mm 2 m/S 762 mmHg 62%

    Morgen, 17 Oktober, Mittwoch

    Zeit Temperatur Niederschläge Wind Luftdruck Luftfeuchtigkeit
    00:00 +17°C° 0 mm 2 m/S 762 mmHg 63%
    01:00 +16°C° 0 mm 2 m/S 762 mmHg 64%
    02:00 +16°C° 0 mm 2 m/S 762 mmHg 64%
    03:00 +15°C° 0 mm 2 m/S 762 mmHg 65%
    04:00 +15°C° 0 mm 2 m/S 762 mmHg 66%
    05:00 +15°C° 0 mm 1 m/S 762 mmHg 66%
    06:00 +15°C° 0 mm 1 m/S 762 mmHg 64%
    07:00 +16°C° 0 mm 1 m/S 762 mmHg 62%
    08:00 +18°C° 0 mm 1 m/S 762 mmHg 59%
    09:00 +19°C° 0 mm 2 m/S 762 mmHg 54%
    10:00 +20°C° 0 mm 2 m/S 762 mmHg 48%
    11:00 +23°C° 0 mm 2 m/S 762 mmHg 43%
    12:00 +24°C° 0 mm 2 m/S 762 mmHg 41%
    13:00 +24°C° 0 mm 2 m/S 761 mmHg 39%
    14:00 +25°C° 0 mm 2 m/S 761 mmHg 37%
    15:00 +24°C° 0 mm 2 m/S 761 mmHg 41%
    16:00 +21°C° 0 mm 2 m/S 761 mmHg 45%
    17:00 +20°C° 0 mm 2 m/S 760 mmHg 48%
    18:00 +19°C° 0 mm 2 m/S 760 mmHg 51%
    19:00 +19°C° 0 mm 2 m/S 761 mmHg 54%
    20:00 +18°C° 0 mm 2 m/S 761 mmHg 57%
    21:00 +17°C° 0 mm 2 m/S 761 mmHg 59%
    22:00 +17°C° 0 mm 2 m/S 761 mmHg 61%
    23:00 +16°C° 0 mm 2 m/S 760 mmHg 63%

    übermorgen, 18 Oktober, Donnerstag

    Zeit Temperatur Niederschläge Wind Luftdruck Luftfeuchtigkeit
    00:00 +16°C° 0 mm 2 m/S 760 mmHg 64%
    01:00 +15°C° 0 mm 2 m/S 760 mmHg 65%
    02:00 +15°C° 0 mm 2 m/S 760 mmHg 66%
    03:00 +15°C° 0 mm 2 m/S 760 mmHg 67%
    04:00 +14°C° 0 mm 2 m/S 760 mmHg 68%
    05:00 +14°C° 0 mm 2 m/S 760 mmHg 68%
    06:00 +15°C° 0 mm 2 m/S 760 mmHg 65%
    07:00 +15°C° 0 mm 2 m/S 760 mmHg 63%
    08:00 +16°C° 0 mm 2 m/S 760 mmHg 60%
    09:00 +18°C° 0 mm 3 m/S 760 mmHg 53%
    10:00 +20°C° 0 mm 3 m/S 760 mmHg 47%
    11:00 +22°C° 0 mm 3 m/S 760 mmHg 40%
    12:00 +22°C° 0 mm 3 m/S 759 mmHg 38%
    13:00 +24°C° 0 mm 3 m/S 759 mmHg 36%
    14:00 +25°C° 0 mm 3 m/S 758 mmHg 34%
    15:00 +22°C° 0 mm 3 m/S 758 mmHg 38%
    16:00 +21°C° 0 mm 3 m/S 758 mmHg 41%
    17:00 +20°C° 0 mm 2 m/S 757 mmHg 45%
    18:00 +19°C° 0 mm 2 m/S 757 mmHg 47%
    19:00 +18°C° 0 mm 3 m/S 758 mmHg 49%
    20:00 +17°C° 0 mm 3 m/S 758 mmHg 51%
    21:00 +17°C° 0 mm 3 m/S 758 mmHg 52%
    22:00 +16°C° 0 mm 3 m/S 757 mmHg 54%
    23:00 +16°C° 0 mm 3 m/S 757 mmHg 55%

    19 Oktober, Freitag

    Zeit Temperatur Niederschläge Wind Luftdruck Luftfeuchtigkeit
    00:00 +15°C° 0 mm 2 m/S 757 mmHg 56%
    01:00 +15°C° 0 mm 2 m/S 757 mmHg 57%
    02:00 +14°C° 0 mm 2 m/S 757 mmHg 58%
    03:00 +14°C° 0 mm 2 m/S 757 mmHg 59%
    04:00 +14°C° 0 mm 2 m/S 757 mmHg 60%
    05:00 +13°C° 0 mm 2 m/S 756 mmHg 62%
    06:00 +14°C° 0 mm 2 m/S 756 mmHg 60%
    07:00 +14°C° 0 mm 2 m/S 756 mmHg 58%
    08:00 +15°C° 0 mm 2 m/S 756 mmHg 57%
    09:00 +17°C° 0 mm 2 m/S 756 mmHg 52%
    10:00 +18°C° 0 mm 2 m/S 756 mmHg 48%
    11:00 +20°C° 0 mm 2 m/S 755 mmHg 43%
    12:00 +21°C° 0 mm 2 m/S 755 mmHg 41%
    13:00 +21°C° 0 mm 2 m/S 755 mmHg 39%
    14:00 +23°C° 0 mm 2 m/S 754 mmHg 37%
    15:00 +22°C° 0 mm 1 m/S 754 mmHg 41%
    16:00 +20°C° 0 mm 1 m/S 754 mmHg 44%
    17:00 +17°C° 0 mm 0 m/S 754 mmHg 48%
    18:00 +19°C° 0 mm 1 m/S 754 mmHg 48%
    19:00 +19°C° 0 mm 1 m/S 754 mmHg 49%
    20:00 +18°C° 0 mm 1 m/S 754 mmHg 50%
    21:00 +18°C° 0 mm 1 m/S 754 mmHg 52%
    22:00 +18°C° 0 mm 1 m/S 753 mmHg 53%
    23:00 +16°C° 0 mm 1 m/S 753 mmHg 55%

    20 Oktober, Samstag

    Zeit Temperatur Niederschläge Wind Luftdruck Luftfeuchtigkeit
    00:00 +16°C° 0.1 mm 1 m/S 753 mmHg 58%
    01:00 +16°C° 0.1 mm 1 m/S 753 mmHg 61%
    02:00 +15°C° 0.1 mm 1 m/S 753 mmHg 64%
    03:00 +15°C° 0 mm 1 m/S 753 mmHg 66%
    04:00 +14°C° 0 mm 1 m/S 753 mmHg 67%
    05:00 +14°C° 0 mm 1 m/S 753 mmHg 69%
    06:00 +14°C° 0 mm 1 m/S 753 mmHg 68%
    07:00 +15°C° 0 mm 2 m/S 753 mmHg 66%
    08:00 +15°C° 0 mm 2 m/S 753 mmHg 64%
    09:00 +17°C° 0 mm 2 m/S 753 mmHg 59%
    10:00 +18°C° 0 mm 2 m/S 753 mmHg 54%
    11:00 +19°C° 0 mm 2 m/S 753 mmHg 49%
    12:00 +20°C° 0 mm 2 m/S 753 mmHg 48%
    13:00 +20°C° 0 mm 2 m/S 753 mmHg 46%
    14:00 +20°C° 0 mm 3 m/S 752 mmHg 44%
    15:00 +19°C° 0 mm 2 m/S 752 mmHg 48%
    16:00 +19°C° 0 mm 2 m/S 753 mmHg 51%
    17:00 +18°C° 0 mm 2 m/S 753 mmHg 54%
    18:00 +17°C° 0 mm 2 m/S 753 mmHg 56%
    19:00 +16°C° 0 mm 2 m/S 753 mmHg 59%
    20:00 +16°C° 0 mm 2 m/S 753 mmHg 61%
    21:00 +15°C° 0 mm 2 m/S 753 mmHg 63%
    22:00 +15°C° 0 mm 2 m/S 753 mmHg 66%
    23:00 +14°C° 0 mm 2 m/S 753 mmHg 68%

    21 Oktober, Sonntag

    Zeit Temperatur Niederschläge Wind Luftdruck Luftfeuchtigkeit
    00:00 +14°C° 0 mm 2 m/S 753 mmHg 70%
    01:00 +14°C° 0 mm 2 m/S 753 mmHg 72%
    02:00 +14°C° 0 mm 2 m/S 753 mmHg 74%
    03:00 +13°C° 0 mm 2 m/S 753 mmHg 75%
    04:00 +13°C° 0 mm 2 m/S 753 mmHg 77%
    05:00 +13°C° 0 mm 2 m/S 753 mmHg 78%
    06:00 +12°C° 0 mm 3 m/S 754 mmHg 77%
    07:00 +12°C° 0 mm 3 m/S 754 mmHg 76%
    08:00 +13°C° 0 mm 3 m/S 754 mmHg 75%
    09:00 +14°C° 0 mm 3 m/S 754 mmHg 70%
    10:00 +16°C° 0 mm 3 m/S 754 mmHg 65%
    11:00 +17°C° 0 mm 4 m/S 754 mmHg 59%
    12:00 +17°C° 0 mm 4 m/S 754 mmHg 58%
    13:00 +18°C° 0 mm 4 m/S 754 mmHg 57%
    14:00 +18°C° 0 mm 4 m/S 754 mmHg 56%
    15:00 +17°C° 0 mm 4 m/S 755 mmHg 60%
    16:00 +15°C° 0 mm 4 m/S 755 mmHg 64%
    17:00 +14°C° 0 mm 4 m/S 755 mmHg 68%
    18:00 +14°C° 0 mm 4 m/S 755 mmHg 70%
    19:00 +13°C° 0 mm 3 m/S 756 mmHg 73%
    20:00 +12°C° 0 mm 3 m/S 756 mmHg 76%
    21:00 +12°C° 0 mm 3 m/S 756 mmHg 78%
    22:00 +11°C° 0 mm 3 m/S 756 mmHg 81%
    23:00 +10°C° 0 mm 3 m/S 756 mmHg 84%
    Mehr zeigen